Location: *
(53.9002°N, 27.5624°E)
Time: 08:23:38
(UTC+00:00)

Cosmos 2056 Rocket - Pass Details

Date: 12 November 2019
Orbit: 742 x 800 km, 74.0° (Epoch: 11 December)

Event Time Altitude Azimuth Distance (km) Brightness Sun altitude
Rises 15:53:53 0° 335° (NNW) 3,197 6.9 -14.2°
Reaches altitude 10° 15:56:35 10° 347° (NNW) 2,269 6.0 -14.6°
Maximum altitude 16:00:58 28° 46° (NE) 1,393 4.4 -15.3°
Enters shadow 16:02:19 25° 72° (ENE) 1,499 4.4 -15.5°
